TimeEET,TemperatureF,Dew PointF,Humidity,Sea Level PressureIn,VisibilityMPH,Wind Direction,Wind SpeedMPH,Gust SpeedMPH,PrecipitationIn,Events,Conditions,WindDirDegrees,DateUTC
12:20 AM,46.4,33.8,62,30.30,5.0,Variable,4.6,-,N/A,,Mostly Cloudy,0,2011-11-17 22:20:00
12:50 AM,44.6,32.0,61,30.30,4.3,NNE,9.2,-,N/A,,Mostly Cloudy,20,2011-11-17 22:50:00
1:20 AM,44.6,30.2,57,30.30,4.3,NNE,6.9,-,N/A,,Mostly Cloudy,30,2011-11-17 23:20:00
1:50 AM,44.6,30.2,57,30.30,4.3,NNE,5.8,-,N/A,,Mostly Cloudy,30,2011-11-17 23:50:00
2:00 AM,45,30,44,30.31,4,NNE,5.8,,,,Mist,30,2011-11-18 00:00:00
2:20 AM,44.6,30.2,57,30.30,4.3,NNE,5.8,-,N/A,,Mostly Cloudy,20,2011-11-18 00:20:00
2:50 AM,44.6,30.2,57,30.30,4.3,NE,3.5,-,N/A,,Mostly Cloudy,40,2011-11-18 00:50:00
3:20 AM,44.6,30.2,57,30.27,5.0,NNE,4.6,-,N/A,,Mostly Cloudy,30,2011-11-18 01:20:00
3:50 AM,44.6,32.0,61,30.27,5.0,NE,5.8,-,N/A,,Mostly Cloudy,50,2011-11-18 01:50:00
4:20 AM,44.6,32.0,61,30.27,5.0,NNE,8.1,-,N/A,,Mostly Cloudy,30,2011-11-18 02:20:00
4:50 AM,44.6,30.2,57,30.27,4.3,NNE,8.1,-,N/A,,Mostly Cloudy,20,2011-11-18 02:50:00
5:20 AM,44.6,30.2,57,30.27,6.2,NNE,8.1,-,N/A,,Mostly Cloudy,20,2011-11-18 03:20:00
5:50 AM,44.6,32.0,61,30.27,6.2,NNE,5.8,-,N/A,,Mostly Cloudy,20,2011-11-18 03:50:00
6:20 AM,44.6,32.0,61,30.27,6.2,ENE,3.5,-,N/A,,Mostly Cloudy,60,2011-11-18 04:20:00
6:50 AM,44.6,32.0,61,30.27,6.2,ENE,5.8,-,N/A,,Mostly Cloudy,60,2011-11-18 04:50:00
7:20 AM,44.6,30.2,57,30.30,6.2,ENE,5.8,-,N/A,,Mostly Cloudy,60,2011-11-18 05:20:00
7:50 AM,46.4,30.2,53,30.30,6.2,ENE,6.9,-,N/A,,Mostly Cloudy,60,2011-11-18 05:50:00
8:00 AM,46,30,41,30.31,6,ENE,6.9,,,,Partly Cloudy,60,2011-11-18 06:00:00
8:20 AM,46.4,30.2,53,30.30,6.2,NE,8.1,-,N/A,,Mostly Cloudy,50,2011-11-18 06:20:00
8:50 AM,46.4,28.4,50,30.30,6.2,Variable,8.1,-,N/A,,Mostly Cloudy,0,2011-11-18 06:50:00
9:20 AM,48.2,28.4,46,30.30,6.2,Variable,6.9,-,N/A,,Mostly Cloudy,0,2011-11-18 07:20:00
9:50 AM,50.0,28.4,43,30.30,6.2,NNE,8.1,-,N/A,,Mostly Cloudy,20,2011-11-18 07:50:00
10:20 AM,50.0,28.4,43,30.30,6.2,ENE,8.1,-,N/A,,Mostly Cloudy,60,2011-11-18 08:20:00
10:50 AM,50.0,26.6,40,30.30,6.2,NNE,10.4,-,N/A,,Mostly Cloudy,20,2011-11-18 08:50:00
11:20 AM,50.0,26.6,40,30.27,6.2,North,9.2,-,N/A,,Mostly Cloudy,10,2011-11-18 09:20:00
11:50 AM,48.2,26.6,43,30.27,6.2,Variable,8.1,-,N/A,,Scattered Clouds,0,2011-11-18 09:50:00
12:20 PM,48.2,28.4,46,30.27,6.2,NNE,10.4,-,N/A,,Scattered Clouds,30,2011-11-18 10:20:00
12:50 PM,50.0,28.4,43,30.27,6.2,NNE,8.1,-,N/A,,Scattered Clouds,30,2011-11-18 10:50:00
1:20 PM,50.0,28.4,43,30.24,6.2,NNE,8.1,-,N/A,,Scattered Clouds,30,2011-11-18 11:20:00
1:50 PM,50.0,28.4,43,30.24,6.2,NE,8.1,-,N/A,,Scattered Clouds,40,2011-11-18 11:50:00
2:00 PM,49,29,33,30.27,6,NE,8.1,,,,Partly Cloudy,40,2011-11-18 12:00:00
2:20 PM,50.0,28.4,43,30.24,6.2,NNE,10.4,-,N/A,,Scattered Clouds,30,2011-11-18 12:20:00
2:50 PM,50.0,28.4,43,30.24,6.2,NE,8.1,-,N/A,,Scattered Clouds,50,2011-11-18 12:50:00
3:20 PM,51.8,30.2,44,30.24,6.2,Variable,9.2,-,N/A,,Scattered Clouds,0,2011-11-18 13:20:00
3:50 PM,48.2,30.2,50,30.24,6.2,NNE,9.2,-,N/A,,Scattered Clouds,30,2011-11-18 13:50:00
4:20 PM,48.2,30.2,50,30.24,6.2,NNE,9.2,-,N/A,,Scattered Clouds,30,2011-11-18 14:20:00
4:50 PM,46.4,30.2,53,30.24,6.2,NNE,9.2,-,N/A,,Scattered Clouds,30,2011-11-18 14:50:00
5:20 PM,46.4,30.2,53,30.27,6.2,NNE,10.4,-,N/A,,Scattered Clouds,20,2011-11-18 15:20:00
5:50 PM,46.4,30.2,53,30.27,6.2,NNE,10.4,-,N/A,,Scattered Clouds,20,2011-11-18 15:50:00
6:20 PM,46.4,30.2,53,30.27,6.2,NNE,11.5,-,N/A,,Scattered Clouds,20,2011-11-18 16:20:00
6:50 PM,46.4,32.0,57,30.27,6.2,NNE,9.2,-,N/A,,Scattered Clouds,30,2011-11-18 16:50:00
7:20 PM,48.2,32.0,54,30.27,6.2,Variable,6.9,-,N/A,,Scattered Clouds,0,2011-11-18 17:20:00
7:50 PM,50.0,32.0,50,30.27,6.2,Variable,6.9,-,N/A,,Scattered Clouds,0,2011-11-18 17:50:00
8:00 PM,50,32,38,30.28,6,NE,6.9,,,,Partly Cloudy,40,2011-11-18 18:00:00
8:20 PM,48.2,32.0,54,30.24,6.2,NNE,5.8,-,N/A,,Scattered Clouds,30,2011-11-18 18:20:00
8:50 PM,42.8,32.0,66,30.24,6.2,North,6.9,-,N/A,,Scattered Clouds,350,2011-11-18 18:50:00
9:20 PM,42.8,32.0,66,30.27,6.2,North,9.2,-,N/A,,Scattered Clouds,350,2011-11-18 19:20:00
9:50 PM,44.6,33.8,66,30.27,6.2,North,9.2,-,N/A,,Scattered Clouds,350,2011-11-18 19:50:00
10:20 PM,42.8,33.8,70,30.24,6.2,North,9.2,-,N/A,,Scattered Clouds,350,2011-11-18 20:20:00
10:50 PM,42.8,33.8,70,30.24,6.2,North,6.9,-,N/A,,Scattered Clouds,350,2011-11-18 20:50:00
11:20 PM,46.4,35.6,66,30.27,6.2,NNE,4.6,-,N/A,,Scattered Clouds,30,2011-11-18 21:20:00
11:50 PM,48.2,35.6,62,30.27,6.2,NE,6.9,-,N/A,,Scattered Clouds,50,2011-11-18 21:50:00